{"data":{"norad_id":65323,"epoch":"2026-05-25T04:26:30.816096Z","epoch_age_seconds":52956,"freshness":"FRESH","line1":"1 65323U 25189A   26145.18507889  .00014852  00000+0  48913-3 0  9995","line2":"2 65323  53.1582 211.0541 0001310  79.4664 280.6485 15.31717904 42827","mean_motion":15.31717904,"eccentricity":0.000131,"inclination_deg":53.1582,"raan_deg":211.0541,"arg_perigee_deg":79.4664,"mean_anomaly_deg":280.6485,"bstar":0.00048913,"rev_number":4282,"period_min":94.012089056315,"perigee_km":469.78942895831,"apogee_km":471.58382074802,"semimajor_km":6848.8236248532,"source":"CELESTRAK","updated_at":"2026-05-25T13:38:20.757572Z"}}